Location: El Chorro
(10.0985°N, 67.3542°W)
Time: 18:10:13
(UTC+00:00)

Cosmos 2251 Rocket - Pass Details

Date: 15 November 2025
Orbit: 760 x 788 km, 74.0° (Epoch: 06 December)

Event Time Altitude Azimuth Distance (km) Brightness Sun altitude
Rises 22:20:31 0° 202° (SSW) 3,215 7.4 -4.7°
Reaches altitude 10° 22:22:56 10° 206° (SSW) 2,292 6.7 -5.3°
Maximum altitude 22:28:00 54° 283° (WNW) 923 4.4 -6.5°
Drops below altitude 10° 22:33:06 10° 1° (N) 2,306 5.8 -7.7°
Sets 22:35:32 0° 5° (N) 3,237 6.5 -8.2°
